Location: Middle Street
(51.7167°N, 0.0333°E)
Time: 02:28:48
(UTC+00:00)

Cosmos 1833 Rocket - Pass Details

Date: 20 January 2021
Orbit: 833 x 839 km, 71.0° (Epoch: 28 February)

Event Time Altitude Azimuth Distance (km) Brightness Sun altitude
Rises 17:45:36 0° 329° (NNW) 3,393 6.0 -11.7°
Reaches altitude 10° 17:48:38 10° 345° (NNW) 2,456 5.1 -12.2°
Maximum altitude 17:52:56 22° 35° (NE) 1,766 3.9 -12.8°
Enters shadow 17:55:00 18° 64° (ENE) 1,949 4.0 -13.1°
